ウェスト-コホウテク-池村彗星

76P/West-Kohoutek-Ikemura (2019)

English version
Home page
Updated on December 9, 2019

---------------------------------------------------------------------

・ プロフィール

・ 写真集

・ 軌道要素

Epoch 2019 Nov. 13.0 TT = JDT 2458800.5
T 2019 Oct. 26.14507 TT                                 MPCW
q   1.6047998            (2000.0)            P               Q
n   0.15213992     Peri.    0.02231     +0.10202259     -0.85752228
a   3.4751529      Node    84.12511     +0.91261617     -0.12103362
e   0.5382074      Incl.   30.45698     +0.39588271     +0.50000640
P   6.48
From 695 observations 1993 July 20-2019 Nov. 4, mean residual 0".8.
     Nongravitational parameters A1 = -0.17, A2 = -0.0171.

・ 星図

・ 光度変化

        m1 = 13.0 + 5 logΔ + 22.0 log r

---------------------------------------------------------------------

軌道要素はM.P.E.C. 2019-V116に掲載されたものです。
星図はステラナビゲータ Ver.10 (アストロアーツ) で作成したものです。
光度グラフはComet for Windowsで作成したものです。

---------------------------------------------------------------------

Copyright(C) Seiichi Yoshida (comet@aerith.net). All rights reserved.